Погода в Тешилово

Россия / Тверская область     56°34′25″N   36°26′50″E
темп.,
°C
ветер,
м/с
пор.,
м/с
влажн.,
%
обл.,
%
осадки,
мм/ч
давл.,
гПа
погр.,
м
22 января, сб
сб2200:00−7вюв2497100 0.9 998176
03:00−6вюв2596100 1.7 999232
06:00−10в269799 0.1 1001131
09:00−9всв279692 0.2 1004185
12:00−6в3794100 0.4 1006430
15:00−5в369595 0.9 1008430
18:00−6всв379694 0.4 1010341
21:00−6в3796100 0.8 1013297
23 января, вс
вс2300:00−10всв249876 0.1 101672
03:00−11всв259872 0.2 101991
06:00−17всв1110094 0.0 10229
09:00−18всв1110098 0.1 102622
12:00−11св129597 0.0 1028127
15:00−9с129571 0.1 1030116
18:00−16св1110087 0.0 10339
21:00−19в11100100 0.0 10369
24 января, пн
пн2400:00−20св00100100 0.0 10379
03:00−21ссз11100100 0.0 10399
06:00−22з00100100 0.0 10399
09:00−22ююз00100100 0.0 10409
12:00−12ююв119575 0.0 103983
15:00−9с01945 0.0 103763
18:00−17юв1110074 0.0 10379
21:00−19ю1110097 0.0 103510
25 января, вт
вт2500:00−20ю1110099 0.0 10349
03:00−19ююз1110094 0.0 103210
06:00−19ю1210095 0.0 102925
09:00−18ю2210096 0.0 102742
12:00−10ю369365 0.0 1024192
15:00−8ююз26925 0.0 1021323
18:00−13ю279634 0.0 1020106
21:00−15ю269712 0.0 101996
26 января, ср
ср2600:00−17ю2498100 0.0 101857
03:00−13ююв1496100 0.0 1017107
06:00−12ююв2495100 0.0 1017125
09:00−12юв139784 0.1 101794
12:00−9ююв1292100 0.2 1017252
15:00−8вюв1292100 0.4 1016301
18:00−11вюв1198100 0.1 101610
21:00−14юв119981 0.2 102010